Time,TemperatureF,DewpointF,PressureIn,WindDirection,WindDirectionDegrees,WindSpeedMPH,WindSpeedGustMPH,Humidity,HourlyPrecipIn,Conditions,Clouds,dailyrainin,SoftwareType,DateUTC
2013-03-03 00:02:00,28.0,25.0,30.07,NW,315,3.0,-999.0,87,-99.99,,,-99.99,,2013-03-03 05:02:00,
2013-03-03 00:12:00,28.0,25.0,30.07,NW,315,3.0,-999.0,87,-99.99,,,-99.99,,2013-03-03 05:12:00,
2013-03-03 00:22:00,28.0,24.0,30.06,NW,307,4.0,-999.0,86,-99.99,,,-99.99,,2013-03-03 05:22:00,
2013-03-03 00:32:00,28.0,25.0,30.06,NW,307,3.0,-999.0,87,-99.99,,,-99.99,,2013-03-03 05:32:00,
2013-03-03 00:42:00,28.0,25.0,30.06,NW,307,3.0,-999.0,87,-99.99,,,-99.99,,2013-03-03 05:42:00,
2013-03-03 00:52:00,28.0,25.0,30.06,NW,307,3.0,-999.0,87,-99.99,,,-99.99,,2013-03-03 05:52:00,
2013-03-03 01:02:00,28.0,25.0,30.06,NW,307,3.0,-999.0,87,-99.99,,,-99.99,,2013-03-03 06:02:00,
2013-03-03 01:11:00,28.0,25.0,30.06,NW,307,3.0,-999.0,87,-99.99,,,-99.99,,2013-03-03 06:11:00,
2013-03-03 01:21:00,28.0,25.0,30.07,NW,307,2.0,-999.0,87,-99.99,,,-99.99,,2013-03-03 06:21:00,
2013-03-03 01:32:00,28.0,25.0,30.06,NW,307,2.0,-999.0,87,-99.99,,,-99.99,,2013-03-03 06:32:00,
2013-03-03 01:42:00,28.0,25.0,30.06,NW,307,2.0,-999.0,87,-99.99,,,-99.99,,2013-03-03 06:42:00,
2013-03-03 01:52:00,28.0,25.0,30.07,NW,307,0.0,-999.0,88,-99.99,,,-99.99,,2013-03-03 06:52:00,
2013-03-03 02:01:00,28.0,25.0,30.07,NW,307,0.0,-999.0,88,-99.99,,,-99.99,,2013-03-03 07:01:00,
2013-03-03 02:11:00,28.0,25.0,30.07,NW,307,0.0,-999.0,88,-99.99,,,-99.99,,2013-03-03 07:11:00,
2013-03-03 02:21:00,28.0,25.0,30.07,NW,307,0.0,-999.0,89,-99.99,,,-99.99,,2013-03-03 07:21:00,
2013-03-03 02:32:00,28.0,25.0,30.07,NW,307,0.0,-999.0,89,-99.99,,,-99.99,,2013-03-03 07:32:00,
2013-03-03 02:42:00,28.0,25.0,30.07,NW,307,0.0,-999.0,89,-99.99,,,-99.99,,2013-03-03 07:42:00,
2013-03-03 02:52:00,28.0,25.0,30.07,NW,307,0.0,-999.0,90,-99.99,,,-99.99,,2013-03-03 07:52:00,
2013-03-03 03:01:00,28.0,25.0,30.07,NW,307,0.0,-999.0,90,-99.99,,,-99.99,,2013-03-03 08:01:00,
2013-03-03 03:11:00,28.0,25.0,30.07,NW,307,0.0,-999.0,90,-99.99,,,-99.99,,2013-03-03 08:11:00,
2013-03-03 03:21:00,27.0,24.0,30.06,NW,307,0.0,-999.0,90,-99.99,,,-99.99,,2013-03-03 08:21:00,
2013-03-03 03:31:00,27.0,24.0,30.05,NW,307,0.0,-999.0,89,-99.99,,,-99.99,,2013-03-03 08:31:00,
2013-03-03 03:42:00,27.0,24.0,30.05,NW,307,0.0,-999.0,89,-99.99,,,-99.99,,2013-03-03 08:42:00,
2013-03-03 03:54:00,27.0,24.0,30.05,NW,307,0.0,-999.0,89,-99.99,,,-99.99,,2013-03-03 08:54:00,
2013-03-03 04:01:00,27.0,24.0,30.05,NW,307,0.0,-999.0,89,-99.99,,,-99.99,,2013-03-03 09:01:00,
2013-03-03 04:12:00,27.0,24.0,30.05,NW,307,0.0,-999.0,89,-99.99,,,-99.99,,2013-03-03 09:12:00,
2013-03-03 04:21:00,27.0,24.0,30.04,NW,307,1.0,-999.0,89,-99.99,,,-99.99,,2013-03-03 09:21:00,
2013-03-03 04:32:00,27.0,24.0,30.04,NW,307,1.0,-999.0,88,-99.99,,,-99.99,,2013-03-03 09:32:00,
2013-03-03 04:42:00,27.0,24.0,30.04,NW,307,1.0,-999.0,88,-99.99,,,-99.99,,2013-03-03 09:42:00,
2013-03-03 04:52:00,27.0,24.0,30.04,NW,307,1.0,-999.0,88,-99.99,,,-99.99,,2013-03-03 09:52:00,
2013-03-03 05:01:00,28.0,25.0,30.04,NW,307,2.0,-999.0,88,-99.99,,,-99.99,,2013-03-03 10:01:00,
2013-03-03 05:11:00,28.0,25.0,30.04,NW,307,2.0,-999.0,88,-99.99,,,-99.99,,2013-03-03 10:11:00,
2013-03-03 05:21:00,28.0,25.0,30.04,NW,307,2.0,-999.0,88,-99.99,,,-99.99,,2013-03-03 10:21:00,
2013-03-03 05:32:00,28.0,25.0,30.04,NW,307,2.0,-999.0,88,-99.99,,,-99.99,,2013-03-03 10:32:00,
2013-03-03 05:42:00,28.0,25.0,30.04,NW,307,2.0,-999.0,88,-99.99,,,-99.99,,2013-03-03 10:42:00,
2013-03-03 05:52:00,28.0,25.0,30.05,NW,307,1.0,-999.0,88,-99.99,,,-99.99,,2013-03-03 10:52:00,
2013-03-03 06:01:00,28.0,25.0,30.05,NW,307,1.0,-999.0,88,-99.99,,,-99.99,,2013-03-03 11:01:00,
2013-03-03 06:11:00,28.0,25.0,30.05,NW,307,1.0,-999.0,88,-99.99,,,-99.99,,2013-03-03 11:11:00,
2013-03-03 06:22:00,28.0,25.0,30.05,NW,306,2.0,-999.0,88,-99.99,,,-99.99,,2013-03-03 11:22:00,
2013-03-03 06:32:00,28.0,25.0,30.05,NW,306,2.0,-999.0,89,-99.99,,,-99.99,,2013-03-03 11:32:00,
2013-03-03 06:42:00,28.0,25.0,30.05,NW,306,2.0,-999.0,89,-99.99,,,-99.99,,2013-03-03 11:42:00,
2013-03-03 06:53:00,28.0,25.0,30.05,WNW,302,3.0,-999.0,89,-99.99,,,-99.99,,2013-03-03 11:53:00,
2013-03-03 07:02:00,28.0,25.0,30.05,WNW,302,3.0,-999.0,89,-99.99,,,-99.99,,2013-03-03 12:02:00,
2013-03-03 07:11:00,28.0,25.0,30.05,WNW,302,3.0,-999.0,89,-99.99,,,-99.99,,2013-03-03 12:11:00,
2013-03-03 07:21:00,28.0,25.0,30.05,WNW,302,2.0,-999.0,90,-99.99,,,-99.99,,2013-03-03 12:21:00,
2013-03-03 07:32:00,28.0,25.0,30.06,WNW,302,3.0,-999.0,90,-99.99,,,-99.99,,2013-03-03 12:32:00,
2013-03-03 07:43:00,28.0,25.0,30.06,WNW,302,3.0,-999.0,90,-99.99,,,-99.99,,2013-03-03 12:43:00,
2013-03-03 07:53:00,28.0,25.0,30.06,WNW,302,3.0,-999.0,90,-99.99,,,-99.99,,2013-03-03 12:53:00,
2013-03-03 08:01:00,28.0,25.0,30.06,WNW,302,2.0,-999.0,90,-99.99,,,-99.99,,2013-03-03 13:01:00,
2013-03-03 08:11:00,28.0,25.0,30.06,WNW,302,2.0,-999.0,90,-99.99,,,-99.99,,2013-03-03 13:11:00,
2013-03-03 08:22:00,28.0,25.0,30.07,NW,308,3.0,-999.0,90,-99.99,,,-99.99,,2013-03-03 13:22:00,
2013-03-03 08:32:00,28.0,25.0,30.06,NW,308,3.0,-999.0,90,-99.99,,,-99.99,,2013-03-03 13:32:00,
2013-03-03 08:42:00,28.0,25.0,30.06,NW,308,3.0,-999.0,90,-99.99,,,-99.99,,2013-03-03 13:42:00,
2013-03-03 08:52:00,28.0,25.0,30.07,NW,306,4.0,-999.0,90,-99.99,,,-99.99,,2013-03-03 13:52:00,
2013-03-03 09:02:00,29.0,26.0,30.07,NW,305,5.0,-999.0,89,-99.99,,,-99.99,,2013-03-03 14:02:00,
2013-03-03 09:11:00,29.0,26.0,30.07,NW,305,5.0,-999.0,89,-99.99,,,-99.99,,2013-03-03 14:11:00,
2013-03-03 09:21:00,29.0,26.0,30.07,WNW,297,6.0,-999.0,88,-99.99,,,-99.99,,2013-03-03 14:21:00,
2013-03-03 09:32:00,29.0,25.0,30.07,WNW,296,6.0,-999.0,85,-99.99,,,-99.99,,2013-03-03 14:32:00,
2013-03-03 09:42:00,29.0,25.0,30.07,WNW,296,6.0,-999.0,85,-99.99,,,-99.99,,2013-03-03 14:42:00,
2013-03-03 09:52:00,29.0,24.0,30.07,NNW,331,6.0,-999.0,80,-99.99,,,-99.99,,2013-03-03 14:52:00,
2013-03-03 10:02:00,29.0,23.0,30.07,NW,313,7.0,-999.0,78,-99.99,,,-99.99,,2013-03-03 15:02:00,
2013-03-03 10:11:00,29.0,23.0,30.07,NW,313,7.0,-999.0,78,-99.99,,,-99.99,,2013-03-03 15:11:00,
2013-03-03 10:22:00,30.0,24.0,30.07,NW,318,6.0,-999.0,77,-99.99,,,-99.99,,2013-03-03 15:22:00,
2013-03-03 10:32:00,30.0,23.0,30.07,NW,309,5.0,-999.0,75,-99.99,,,-99.99,,2013-03-03 15:32:00,
2013-03-03 10:42:00,30.0,23.0,30.07,NW,309,5.0,-999.0,75,-99.99,,,-99.99,,2013-03-03 15:42:00,
2013-03-03 10:52:00,30.0,23.0,30.07,WNW,303,5.0,-999.0,75,-99.99,,,-99.99,,2013-03-03 15:52:00,
2013-03-03 11:02:00,30.0,23.0,30.07,WNW,303,5.0,-999.0,75,-99.99,,,-99.99,,2013-03-03 16:02:00,
2013-03-03 11:12:00,30.0,23.0,30.07,WNW,303,5.0,-999.0,75,-99.99,,,-99.99,,2013-03-03 16:12:00,
2013-03-03 11:22:00,30.0,23.0,30.08,NNW,339,6.0,-999.0,74,-99.99,,,-99.99,,2013-03-03 16:22:00,
2013-03-03 11:32:00,31.0,23.0,30.08,North,350,6.0,-999.0,71,-99.99,,,-99.99,,2013-03-03 16:32:00,
2013-03-03 11:42:00,31.0,23.0,30.08,North,350,6.0,-999.0,71,-99.99,,,-99.99,,2013-03-03 16:42:00,
2013-03-03 11:52:00,31.0,22.0,30.08,NNE,23,4.0,-999.0,69,-99.99,,,-99.99,,2013-03-03 16:52:00,
2013-03-03 12:01:00,31.0,21.0,30.07,NW,320,8.0,-999.0,66,-99.99,,,-99.99,,2013-03-03 17:01:00,
2013-03-03 12:11:00,31.0,21.0,30.07,NW,320,8.0,-999.0,66,-99.99,,,-99.99,,2013-03-03 17:11:00,
2013-03-03 12:20:00,31.0,23.0,30.07,NW,325,5.0,-999.0,72,-99.99,,,-99.99,,2013-03-03 17:20:00,
2013-03-03 12:22:00,31.0,21.0,30.07,NW,320,8.0,-999.0,66,-99.99,,,-99.99,,2013-03-03 17:22:00,
2013-03-03 12:32:00,31.0,22.0,30.07,North,349,4.0,-999.0,69,-99.99,,,-99.99,,2013-03-03 17:32:00,
2013-03-03 12:42:00,31.0,22.0,30.07,North,349,4.0,-999.0,69,-99.99,,,-99.99,,2013-03-03 17:42:00,
2013-03-03 12:52:00,31.0,23.0,30.07,NW,325,5.0,-999.0,72,-99.99,,,-99.99,,2013-03-03 17:52:00,
2013-03-03 13:02:00,31.0,23.0,30.07,NW,325,5.0,-999.0,72,-99.99,,,-99.99,,2013-03-03 18:02:00,
2013-03-03 13:11:00,31.0,23.0,30.07,NW,325,5.0,-999.0,72,-99.99,,,-99.99,,2013-03-03 18:11:00,
2013-03-03 13:32:00,32.0,25.0,30.06,NW,309,5.0,-999.0,75,-99.99,,,-99.99,,2013-03-03 18:32:00,
2013-03-03 13:42:00,32.0,25.0,30.06,NW,309,5.0,-999.0,75,-99.99,,,-99.99,,2013-03-03 18:42:00,
2013-03-03 13:52:00,32.0,25.0,30.06,NW,309,5.0,-999.0,75,-99.99,,,-99.99,,2013-03-03 18:52:00,
2013-03-03 14:02:00,30.0,26.0,30.06,NW,307,4.0,-999.0,84,-99.99,,,-99.99,,2013-03-03 19:02:00,
2013-03-03 14:11:00,30.0,26.0,30.06,NW,307,4.0,-999.0,84,-99.99,,,-99.99,,2013-03-03 19:11:00,
2013-03-03 14:22:00,31.0,27.0,30.05,West,272,4.0,-999.0,84,-99.99,,,-99.99,,2013-03-03 19:22:00,
2013-03-03 14:32:00,31.0,24.0,30.04,West,259,7.0,-999.0,75,-99.99,,,-99.99,,2013-03-03 19:32:00,
2013-03-03 14:42:00,31.0,24.0,30.04,West,259,7.0,-999.0,75,-99.99,,,-99.99,,2013-03-03 19:42:00,
2013-03-03 14:52:00,31.0,24.0,30.05,WNW,290,7.0,-999.0,76,-99.99,,,-99.99,,2013-03-03 19:52:00,
2013-03-03 15:02:00,32.0,25.0,30.05,WNW,287,5.0,-999.0,74,-99.99,,,-99.99,,2013-03-03 20:02:00,
2013-03-03 15:11:00,32.0,25.0,30.05,WNW,287,5.0,-999.0,74,-99.99,,,-99.99,,2013-03-03 20:11:00,
2013-03-03 15:22:00,32.0,23.0,30.05,WNW,288,6.0,-999.0,69,-99.99,,,-99.99,,2013-03-03 20:22:00,
2013-03-03 15:32:00,33.0,23.0,30.05,WNW,294,8.0,-999.0,66,-99.99,,,-99.99,,2013-03-03 20:32:00,
2013-03-03 15:42:00,33.0,23.0,30.05,WNW,294,8.0,-999.0,66,-99.99,,,-99.99,,2013-03-03 20:42:00,
2013-03-03 15:52:00,33.0,23.0,30.05,NW,309,9.0,-999.0,66,-99.99,,,-99.99,,2013-03-03 20:52:00,
2013-03-03 16:02:00,33.0,22.0,30.05,NW,306,7.0,-999.0,64,-99.99,,,-99.99,,2013-03-03 21:02:00,
2013-03-03 16:12:00,33.0,22.0,30.05,NW,306,7.0,-999.0,64,-99.99,,,-99.99,,2013-03-03 21:12:00,
2013-03-03 16:22:00,33.0,20.0,30.05,NW,308,8.0,-999.0,59,-99.99,,,-99.99,,2013-03-03 21:22:00,
2013-03-03 16:32:00,33.0,21.0,30.05,NNW,328,8.0,-999.0,62,-99.99,,,-99.99,,2013-03-03 21:32:00,
2013-03-03 16:42:00,33.0,21.0,30.05,NNW,328,8.0,-999.0,62,-99.99,,,-99.99,,2013-03-03 21:42:00,
2013-03-03 16:52:00,33.0,21.0,30.05,NNW,328,8.0,-999.0,62,-99.99,,,-99.99,,2013-03-03 21:52:00,
2013-03-03 17:02:00,33.0,20.0,30.05,WNW,302,7.0,-999.0,58,-99.99,,,-99.99,,2013-03-03 22:02:00,
2013-03-03 17:11:00,33.0,20.0,30.05,WNW,302,7.0,-999.0,58,-99.99,,,-99.99,,2013-03-03 22:11:00,
2013-03-03 17:22:00,33.0,19.0,30.05,WNW,299,6.0,-999.0,57,-99.99,,,-99.99,,2013-03-03 22:22:00,
2013-03-03 17:32:00,34.0,19.0,30.05,NW,325,7.0,-999.0,54,-99.99,,,-99.99,,2013-03-03 22:32:00,
2013-03-03 17:42:00,34.0,19.0,30.05,NW,325,7.0,-999.0,54,-99.99,,,-99.99,,2013-03-03 22:42:00,
2013-03-03 17:52:00,34.0,20.0,30.05,NW,317,8.0,-999.0,55,-99.99,,,-99.99,,2013-03-03 22:52:00,
2013-03-03 18:02:00,33.0,19.0,30.05,WNW,302,7.0,-999.0,56,-99.99,,,-99.99,,2013-03-03 23:02:00,
2013-03-03 18:11:00,33.0,19.0,30.05,WNW,302,7.0,-999.0,56,-99.99,,,-99.99,,2013-03-03 23:11:00,
2013-03-03 18:21:00,33.0,19.0,30.06,NW,310,5.0,-999.0,56,-99.99,,,-99.99,,2013-03-03 23:21:00,
2013-03-03 18:32:00,33.0,19.0,30.06,NW,316,4.0,-999.0,57,-99.99,,,-99.99,,2013-03-03 23:32:00,
2013-03-03 18:42:00,33.0,19.0,30.06,NW,316,4.0,-999.0,57,-99.99,,,-99.99,,2013-03-03 23:42:00,
2013-03-03 18:52:00,33.0,19.0,30.06,NW,317,1.0,-999.0,57,-99.99,,,-99.99,,2013-03-03 23:52:00,
2013-03-03 19:02:00,33.0,20.0,30.06,NW,317,2.0,-999.0,58,-99.99,,,-99.99,,2013-03-04 00:02:00,
2013-03-03 19:11:00,33.0,20.0,30.06,NW,317,2.0,-999.0,58,-99.99,,,-99.99,,2013-03-04 00:11:00,
2013-03-03 19:22:00,32.0,19.0,30.07,NW,317,0.0,-999.0,59,-99.99,,,-99.99,,2013-03-04 00:22:00,
2013-03-03 19:32:00,32.0,20.0,30.07,NW,317,0.0,-999.0,62,-99.99,,,-99.99,,2013-03-04 00:32:00,
2013-03-03 19:42:00,32.0,20.0,30.07,NW,317,0.0,-999.0,62,-99.99,,,-99.99,,2013-03-04 00:42:00,
2013-03-03 19:52:00,31.0,21.0,30.07,NW,317,0.0,-999.0,67,-99.99,,,-99.99,,2013-03-04 00:52:00,
2013-03-03 20:02:00,30.0,21.0,30.07,NW,317,0.0,-999.0,68,-99.99,,,-99.99,,2013-03-04 01:02:00,
2013-03-03 20:12:00,30.0,21.0,30.07,NW,317,0.0,-999.0,68,-99.99,,,-99.99,,2013-03-04 01:12:00,
2013-03-03 20:22:00,29.0,21.0,30.07,NW,317,0.0,-999.0,71,-99.99,,,-99.99,,2013-03-04 01:22:00,
2013-03-03 20:32:00,28.0,21.0,30.07,NW,317,0.0,-999.0,74,-99.99,,,-99.99,,2013-03-04 01:32:00,
2013-03-03 20:42:00,28.0,21.0,30.07,NW,317,0.0,-999.0,74,-99.99,,,-99.99,,2013-03-04 01:42:00,
2013-03-03 20:52:00,27.0,21.0,30.08,NW,317,0.0,-999.0,77,-99.99,,,-99.99,,2013-03-04 01:52:00,
2013-03-03 21:01:00,26.0,20.0,30.08,NW,317,0.0,-999.0,79,-99.99,,,-99.99,,2013-03-04 02:01:00,
2013-03-03 21:11:00,26.0,20.0,30.08,NW,317,0.0,-999.0,79,-99.99,,,-99.99,,2013-03-04 02:11:00,
2013-03-03 21:22:00,25.0,20.0,30.08,NW,317,0.0,-999.0,81,-99.99,,,-99.99,,2013-03-04 02:22:00,
2013-03-03 21:32:00,25.0,21.0,30.09,NW,317,0.0,-999.0,83,-99.99,,,-99.99,,2013-03-04 02:32:00,
2013-03-03 21:42:00,25.0,21.0,30.09,NW,317,0.0,-999.0,83,-99.99,,,-99.99,,2013-03-04 02:42:00,
2013-03-03 21:52:00,24.0,20.0,30.09,NW,317,0.0,-999.0,83,-99.99,,,-99.99,,2013-03-04 02:52:00,
2013-03-03 22:02:00,24.0,20.0,30.09,NW,317,0.0,-999.0,85,-99.99,,,-99.99,,2013-03-04 03:02:00,
2013-03-03 22:11:00,24.0,20.0,30.09,NW,317,0.0,-999.0,85,-99.99,,,-99.99,,2013-03-04 03:11:00,
2013-03-03 22:22:00,24.0,20.0,30.09,NW,317,0.0,-999.0,85,-99.99,,,-99.99,,2013-03-04 03:22:00,
2013-03-03 22:32:00,23.0,19.0,30.09,NW,317,0.0,-999.0,85,-99.99,,,-99.99,,2013-03-04 03:32:00,
2013-03-03 22:42:00,23.0,19.0,30.09,NW,317,0.0,-999.0,86,-99.99,,,-99.99,,2013-03-04 03:42:00,
2013-03-03 22:52:00,23.0,19.0,30.09,NW,317,0.0,-999.0,86,-99.99,,,-99.99,,2013-03-04 03:52:00,
2013-03-03 23:01:00,23.0,19.0,30.09,NW,317,0.0,-999.0,86,-99.99,,,-99.99,,2013-03-04 04:01:00,
2013-03-03 23:11:00,23.0,19.0,30.09,NW,317,0.0,-999.0,86,-99.99,,,-99.99,,2013-03-04 04:11:00,
2013-03-03 23:22:00,23.0,19.0,30.09,NW,317,0.0,-999.0,86,-99.99,,,-99.99,,2013-03-04 04:22:00,
2013-03-03 23:32:00,23.0,20.0,30.09,NW,317,0.0,-999.0,87,-99.99,,,-99.99,,2013-03-04 04:32:00,
2013-03-03 23:42:00,23.0,20.0,30.09,NW,317,0.0,-999.0,87,-99.99,,,-99.99,,2013-03-04 04:42:00,
2013-03-03 23:52:00,22.0,19.0,30.09,NW,317,0.0,-999.0,87,-99.99,,,-99.99,,2013-03-04 04:52:00,